Time,TemperatureF,DewpointF,PressureIn,WindDirection,WindDirectionDegrees,WindSpeedMPH,WindSpeedGustMPH,Humidity,HourlyPrecipIn,Conditions,Clouds,dailyrainin,SolarRadiationWatts/m^2,SoftwareType,DateUTC
2013-02-20 00:01:00,53.4,52.0,30.10,West,269,0.0,4.0,95,0.00,,,0.04,0.0,meteohub,2013-02-20 05:01:00,
2013-02-20 00:02:00,53.4,52.0,30.10,West,269,0.0,4.0,95,0.00,,,0.04,0.0,meteohub,2013-02-20 05:02:00,
2013-02-20 00:04:00,53.4,52.0,30.10,West,269,0.0,4.0,95,0.00,,,0.04,0.0,meteohub,2013-02-20 05:04:00,
2013-02-20 00:10:00,53.2,51.8,30.10,West,269,0.0,4.0,95,0.00,,,0.04,0.0,meteohub,2013-02-20 05:10:00,
2013-02-20 00:16:00,53.1,51.6,30.10,West,269,0.0,3.0,95,0.00,,,0.04,0.0,meteohub,2013-02-20 05:16:00,
2013-02-20 00:22:00,52.9,51.4,30.09,West,269,0.0,3.0,95,0.00,,,0.04,0.0,meteohub,2013-02-20 05:22:00,
2013-02-20 00:28:00,52.7,51.3,30.10,West,269,0.0,3.0,95,0.00,,,0.04,0.0,meteohub,2013-02-20 05:28:00,
2013-02-20 00:35:00,52.5,51.1,30.10,West,269,0.0,2.0,95,0.00,,,0.04,0.0,meteohub,2013-02-20 05:35:00,
2013-02-20 00:41:00,52.3,50.9,30.10,West,269,0.0,2.0,95,0.00,,,0.04,0.0,meteohub,2013-02-20 05:41:00,
2013-02-20 00:47:00,52.3,50.9,30.10,West,269,0.0,2.0,95,0.00,,,0.04,0.0,meteohub,2013-02-20 05:47:00,
2013-02-20 00:52:00,52.2,50.7,30.10,West,269,0.0,2.0,95,0.00,,,0.04,0.0,meteohub,2013-02-20 05:52:00,
2013-02-20 00:57:00,52.0,50.5,30.10,West,269,0.0,2.0,95,0.00,,,0.04,0.0,meteohub,2013-02-20 05:57:00,
2013-02-20 01:02:00,51.8,50.4,30.10,West,269,0.0,1.0,95,0.00,,,0.04,0.0,meteohub,2013-02-20 06:02:00,
2013-02-20 01:09:00,51.4,50.0,30.12,West,269,0.0,1.0,95,0.00,,,0.04,0.0,meteohub,2013-02-20 06:09:00,
2013-02-20 01:15:00,51.1,49.6,30.11,West,269,0.0,0.0,95,0.00,,,0.04,0.0,meteohub,2013-02-20 06:15:00,
2013-02-20 01:21:00,50.5,49.1,30.12,West,269,0.0,0.0,95,0.00,,,0.04,0.0,meteohub,2013-02-20 06:21:00,
2013-02-20 01:27:00,50.4,48.9,30.12,West,269,0.0,0.0,95,0.00,,,0.04,0.0,meteohub,2013-02-20 06:27:00,
2013-02-20 01:32:00,49.8,48.2,30.12,West,269,0.0,0.0,94,0.00,,,0.04,0.0,meteohub,2013-02-20 06:32:00,
2013-02-20 01:37:00,49.5,48.0,30.12,West,269,0.0,0.0,95,0.00,,,0.04,0.0,meteohub,2013-02-20 06:37:00,
2013-02-20 01:42:00,49.1,47.7,30.12,West,269,0.0,0.0,95,0.00,,,0.04,0.0,meteohub,2013-02-20 06:42:00,
2013-02-20 01:49:00,48.7,47.3,30.12,West,269,0.0,0.0,95,0.00,,,0.04,0.0,meteohub,2013-02-20 06:49:00,
2013-02-20 01:55:00,48.6,47.1,30.12,West,269,0.0,0.0,95,0.00,,,0.04,0.0,meteohub,2013-02-20 06:55:00,
2013-02-20 02:01:00,48.2,46.8,30.12,West,269,0.0,0.0,95,0.00,,,0.04,0.0,meteohub,2013-02-20 07:01:00,
2013-02-20 02:07:00,47.8,46.4,30.13,West,269,0.0,0.0,95,0.00,,,0.04,0.0,meteohub,2013-02-20 07:07:00,
2013-02-20 02:12:00,47.7,46.2,30.13,West,269,0.0,0.0,95,0.00,,,0.04,0.0,meteohub,2013-02-20 07:12:00,
2013-02-20 02:17:00,47.1,45.5,30.13,North,0,0.0,0.0,94,0.00,,,0.04,0.0,meteohub,2013-02-20 07:17:00,
2013-02-20 02:22:00,46.9,45.5,30.13,North,0,0.0,3.0,95,0.00,,,0.04,0.0,meteohub,2013-02-20 07:22:00,
2013-02-20 02:27:00,46.8,45.1,30.13,North,0,0.0,3.0,94,0.00,,,0.04,0.0,meteohub,2013-02-20 07:27:00,
2013-02-20 02:32:00,46.2,44.6,30.13,North,0,0.0,1.0,94,0.00,,,0.04,0.0,meteohub,2013-02-20 07:32:00,
2013-02-20 02:37:00,46.0,44.4,30.13,North,0,0.0,1.0,94,0.00,,,0.04,0.0,meteohub,2013-02-20 07:37:00,
2013-02-20 02:42:00,45.9,44.4,30.13,North,0,0.0,1.0,95,0.00,,,0.04,0.0,meteohub,2013-02-20 07:42:00,
2013-02-20 02:47:00,45.7,44.4,30.13,North,0,0.0,1.0,95,0.00,,,0.04,0.0,meteohub,2013-02-20 07:47:00,
2013-02-20 02:52:00,45.5,44.2,30.13,North,0,0.0,0.0,95,0.00,,,0.04,0.0,meteohub,2013-02-20 07:52:00,
2013-02-20 02:57:00,45.3,44.1,30.13,North,0,0.0,0.0,95,0.00,,,0.04,0.0,meteohub,2013-02-20 07:57:00,
2013-02-20 03:05:00,45.0,43.7,30.13,North,0,0.0,0.0,95,0.00,,,0.04,0.0,meteohub,2013-02-20 08:05:00,
2013-02-20 03:12:00,44.4,42.8,30.13,North,0,0.0,0.0,94,0.00,,,0.04,0.0,meteohub,2013-02-20 08:12:00,
2013-02-20 03:17:00,44.1,42.4,30.12,North,0,0.0,0.0,94,0.00,,,0.04,0.0,meteohub,2013-02-20 08:17:00,
2013-02-20 03:22:00,43.5,41.9,30.12,North,0,0.0,0.0,94,0.00,,,0.04,0.0,meteohub,2013-02-20 08:22:00,
2013-02-20 03:27:00,43.3,41.7,30.12,North,0,0.0,0.0,94,0.00,,,0.04,0.0,meteohub,2013-02-20 08:27:00,
2013-02-20 03:32:00,43.2,41.5,30.12,North,0,0.0,1.0,94,0.00,,,0.04,0.0,meteohub,2013-02-20 08:32:00,
2013-02-20 03:37:00,43.0,41.4,30.12,North,0,0.0,1.0,94,0.00,,,0.04,0.0,meteohub,2013-02-20 08:37:00,
2013-02-20 03:42:00,42.6,41.0,30.12,North,0,0.0,1.0,94,0.00,,,0.04,0.0,meteohub,2013-02-20 08:42:00,
2013-02-20 03:47:00,42.4,40.8,30.13,NW,320,0.0,1.0,94,0.00,,,0.04,0.0,meteohub,2013-02-20 08:47:00,
2013-02-20 03:52:00,42.3,40.6,30.13,NW,320,0.0,1.0,94,0.00,,,0.04,0.0,meteohub,2013-02-20 08:52:00,
2013-02-20 03:57:00,42.1,40.5,30.13,NW,320,0.0,1.0,94,0.00,,,0.04,0.0,meteohub,2013-02-20 08:57:00,
2013-02-20 04:02:00,41.7,40.1,30.12,NW,320,0.0,1.0,94,0.00,,,0.04,0.0,meteohub,2013-02-20 09:02:00,
2013-02-20 04:07:00,41.5,39.9,30.13,NW,320,0.0,1.0,94,0.00,,,0.04,0.0,meteohub,2013-02-20 09:07:00,
2013-02-20 04:12:00,41.4,39.7,30.12,NW,320,0.0,1.0,94,0.00,,,0.04,0.0,meteohub,2013-02-20 09:12:00,
2013-02-20 04:17:00,41.2,39.6,30.13,NW,320,0.0,0.0,94,0.00,,,0.04,0.0,meteohub,2013-02-20 09:17:00,
2013-02-20 04:22:00,40.8,39.2,30.13,NW,320,0.0,0.0,94,0.00,,,0.04,0.0,meteohub,2013-02-20 09:22:00,
2013-02-20 04:27:00,40.6,39.0,30.14,NW,320,0.0,0.0,94,0.00,,,0.04,0.0,meteohub,2013-02-20 09:27:00,
2013-02-20 04:32:00,40.5,38.8,30.14,NW,320,0.0,0.0,94,0.00,,,0.04,0.0,meteohub,2013-02-20 09:32:00,
2013-02-20 04:38:00,39.9,38.3,30.14,NW,320,0.0,0.0,94,0.00,,,0.04,0.0,meteohub,2013-02-20 09:38:00,
2013-02-20 04:45:00,39.7,38.1,30.14,NW,320,0.0,0.0,94,0.00,,,0.04,0.0,meteohub,2013-02-20 09:45:00,
2013-02-20 04:51:00,39.2,37.6,30.14,NW,320,0.0,0.0,94,0.00,,,0.04,0.0,meteohub,2013-02-20 09:51:00,
2013-02-20 04:57:00,38.8,37.0,30.14,NW,320,0.0,0.0,93,0.00,,,0.04,0.0,meteohub,2013-02-20 09:57:00,
2013-02-20 05:02:00,38.7,37.0,30.14,NW,320,0.0,0.0,94,0.00,,,0.04,0.0,meteohub,2013-02-20 10:02:00,
2013-02-20 05:09:00,38.1,36.5,30.14,NW,320,0.0,0.0,94,0.00,,,0.04,0.0,meteohub,2013-02-20 10:09:00,
2013-02-20 05:15:00,37.8,36.1,30.14,NW,320,0.0,0.0,94,0.00,,,0.04,0.0,meteohub,2013-02-20 10:15:00,
2013-02-20 05:22:00,37.6,36.0,30.14,NW,320,0.0,0.0,94,0.00,,,0.04,0.0,meteohub,2013-02-20 10:22:00,
2013-02-20 05:27:00,37.4,35.8,30.14,NW,320,0.0,0.0,94,0.00,,,0.04,0.0,meteohub,2013-02-20 10:27:00,
2013-02-20 05:32:00,37.2,35.6,30.14,NW,320,0.0,0.0,94,0.00,,,0.04,0.0,meteohub,2013-02-20 10:32:00,
2013-02-20 05:37:00,37.0,35.4,30.14,NW,320,0.0,0.0,94,0.00,,,0.04,0.0,meteohub,2013-02-20 10:37:00,
2013-02-20 05:42:00,36.9,35.2,30.14,NW,320,0.0,0.0,94,0.00,,,0.04,0.0,meteohub,2013-02-20 10:42:00,
2013-02-20 05:47:00,36.7,35.1,30.15,NW,320,0.0,0.0,94,0.00,,,0.04,0.0,meteohub,2013-02-20 10:47:00,
2013-02-20 05:52:00,36.7,35.1,30.15,NW,320,0.0,0.0,94,0.00,,,0.04,0.0,meteohub,2013-02-20 10:52:00,
2013-02-20 05:59:00,36.3,34.7,30.15,NW,320,0.0,0.0,94,0.00,,,0.04,0.0,meteohub,2013-02-20 10:59:00,
2013-02-20 06:05:00,36.1,34.5,30.16,NW,320,0.0,0.0,94,0.00,,,0.04,0.0,meteohub,2013-02-20 11:05:00,
2013-02-20 06:11:00,36.0,34.3,30.16,NW,320,0.0,1.0,94,0.00,,,0.04,0.0,meteohub,2013-02-20 11:11:00,
2013-02-20 06:17:00,36.0,34.3,30.16,NW,320,0.0,1.0,94,0.00,,,0.04,0.0,meteohub,2013-02-20 11:17:00,
2013-02-20 06:22:00,35.8,34.2,30.16,NW,320,0.0,1.0,94,0.00,,,0.04,0.0,meteohub,2013-02-20 11:22:00,
2013-02-20 06:27:00,35.8,34.2,30.16,NW,320,0.0,1.0,94,0.00,,,0.04,0.0,meteohub,2013-02-20 11:27:00,
2013-02-20 06:32:00,35.6,34.0,30.17,NW,320,0.0,0.0,94,0.00,,,0.04,0.0,meteohub,2013-02-20 11:32:00,
2013-02-20 06:37:00,35.4,33.8,30.17,NW,320,0.0,0.0,94,0.00,,,0.04,0.0,meteohub,2013-02-20 11:37:00,
2013-02-20 06:42:00,35.2,33.6,30.17,NW,320,0.0,0.0,94,0.00,,,0.04,0.0,meteohub,2013-02-20 11:42:00,
2013-02-20 06:47:00,35.2,33.6,30.17,NW,320,0.0,0.0,94,0.00,,,0.04,0.0,meteohub,2013-02-20 11:47:00,
2013-02-20 06:52:00,35.1,33.4,30.17,NW,320,0.0,0.0,94,0.00,,,0.04,0.0,meteohub,2013-02-20 11:52:00,
2013-02-20 06:57:00,35.1,33.4,30.18,NW,320,0.0,0.0,94,0.00,,,0.04,0.0,meteohub,2013-02-20 11:57:00,
2013-02-20 07:02:00,34.9,33.3,30.18,NW,320,0.0,0.0,94,0.00,,,0.04,0.0,meteohub,2013-02-20 12:02:00,
2013-02-20 07:07:00,34.7,33.1,30.19,NW,320,0.0,0.0,94,0.00,,,0.04,5.0,meteohub,2013-02-20 12:07:00,
2013-02-20 07:12:00,34.5,32.9,30.19,NW,320,0.0,0.0,94,0.00,,,0.04,7.0,meteohub,2013-02-20 12:12:00,
2013-02-20 07:17:00,34.3,32.7,30.19,NW,320,0.0,0.0,94,0.00,,,0.04,12.0,meteohub,2013-02-20 12:17:00,
2013-02-20 07:22:00,34.3,32.7,30.19,NW,320,0.0,0.0,94,0.00,,,0.04,18.0,meteohub,2013-02-20 12:22:00,
2013-02-20 07:27:00,34.2,32.5,30.19,NW,320,0.0,0.0,94,0.00,,,0.04,23.0,meteohub,2013-02-20 12:27:00,
2013-02-20 07:32:00,34.2,32.5,30.18,NW,320,0.0,0.0,94,0.00,,,0.04,28.0,meteohub,2013-02-20 12:32:00,
2013-02-20 07:37:00,34.2,32.5,30.19,NW,320,0.0,0.0,94,0.00,,,0.04,35.0,meteohub,2013-02-20 12:37:00,
2013-02-20 07:42:00,34.0,32.4,30.18,NW,320,0.0,0.0,94,0.00,,,0.04,51.0,meteohub,2013-02-20 12:42:00,
2013-02-20 07:47:00,34.2,32.5,30.18,NW,320,0.0,0.0,94,0.00,,,0.04,53.0,meteohub,2013-02-20 12:47:00,
2013-02-20 07:52:00,34.5,33.3,30.18,NW,320,0.0,0.0,95,0.00,,,0.04,54.0,meteohub,2013-02-20 12:52:00,
2013-02-20 07:57:00,34.9,33.6,30.18,NW,320,0.0,0.0,95,0.00,,,0.04,62.0,meteohub,2013-02-20 12:57:00,
2013-02-20 08:02:00,35.4,34.2,30.19,NW,320,0.0,0.0,95,0.00,,,0.04,67.0,meteohub,2013-02-20 13:02:00,
2013-02-20 08:07:00,35.8,34.5,30.19,NW,320,0.0,0.0,95,0.00,,,0.04,69.0,meteohub,2013-02-20 13:07:00,
2013-02-20 08:12:00,36.1,34.9,30.19,NW,320,0.0,0.0,95,0.00,,,0.04,72.0,meteohub,2013-02-20 13:12:00,
2013-02-20 08:18:00,36.9,35.6,30.19,NW,320,0.0,0.0,95,0.00,,,0.04,74.0,meteohub,2013-02-20 13:18:00,
2013-02-20 08:24:00,37.4,36.1,30.19,NW,320,0.0,1.0,95,0.00,,,0.04,109.0,meteohub,2013-02-20 13:24:00,
2013-02-20 08:30:00,38.8,37.2,30.19,NW,320,0.0,1.0,94,0.00,,,0.04,153.0,meteohub,2013-02-20 13:30:00,
2013-02-20 08:36:00,40.1,37.4,30.19,NW,319,0.0,1.0,90,0.00,,,0.04,77.0,meteohub,2013-02-20 13:36:00,
2013-02-20 08:42:00,41.0,37.2,30.19,NW,319,0.0,1.0,86,0.00,,,0.04,127.0,meteohub,2013-02-20 13:42:00,
2013-02-20 08:47:00,42.1,36.7,30.19,NW,319,0.0,1.0,81,0.00,,,0.04,192.0,meteohub,2013-02-20 13:47:00,
2013-02-20 08:52:00,42.8,36.7,30.18,NE,49,0.0,2.0,79,0.00,,,0.04,128.0,meteohub,2013-02-20 13:52:00,
2013-02-20 08:58:00,43.0,35.2,30.19,NE,49,3.0,3.0,74,0.00,,,0.04,120.0,meteohub,2013-02-20 13:58:00,
2013-02-20 09:04:00,43.5,36.1,30.19,NNW,333,0.0,4.0,75,0.00,,,0.04,232.0,meteohub,2013-02-20 14:04:00,
2013-02-20 09:10:00,44.1,34.9,30.19,WNW,298,0.0,5.0,70,0.00,,,0.04,146.0,meteohub,2013-02-20 14:10:00,
2013-02-20 09:17:00,44.6,34.3,30.19,NNW,333,1.0,5.0,67,0.00,,,0.04,336.0,meteohub,2013-02-20 14:17:00,
2013-02-20 09:22:00,45.0,34.3,30.19,WNW,288,1.0,5.0,66,0.00,,,0.04,218.0,meteohub,2013-02-20 14:22:00,
2013-02-20 09:27:00,45.3,35.4,30.19,North,355,0.0,5.0,68,0.00,,,0.04,234.0,meteohub,2013-02-20 14:27:00,
2013-02-20 09:32:00,45.7,35.1,30.19,West,279,3.0,6.0,66,0.00,,,0.04,362.0,meteohub,2013-02-20 14:32:00,
2013-02-20 09:37:00,45.9,32.7,30.19,NE,50,0.0,6.0,60,0.00,,,0.04,454.0,meteohub,2013-02-20 14:37:00,
2013-02-20 09:42:00,46.2,33.1,30.19,WNW,288,1.0,4.0,60,0.00,,,0.04,510.0,meteohub,2013-02-20 14:42:00,
2013-02-20 09:47:00,46.6,32.2,30.20,NE,44,0.0,4.0,57,0.00,,,0.04,533.0,meteohub,2013-02-20 14:47:00,
2013-02-20 09:52:00,46.8,32.4,30.20,ESE,109,0.0,6.0,57,0.00,,,0.04,554.0,meteohub,2013-02-20 14:52:00,
2013-02-20 09:57:00,47.1,33.1,30.19,NNE,13,0.0,6.0,58,0.00,,,0.04,501.0,meteohub,2013-02-20 14:57:00,
2013-02-20 10:02:00,46.9,32.5,30.19,NE,39,0.0,6.0,57,0.00,,,0.04,522.0,meteohub,2013-02-20 15:02:00,
2013-02-20 10:07:00,47.5,34.7,30.19,WNW,294,0.0,6.0,61,0.00,,,0.04,587.0,meteohub,2013-02-20 15:07:00,
2013-02-20 10:12:00,48.2,34.2,30.18,WSW,254,0.0,6.0,58,0.00,,,0.04,603.0,meteohub,2013-02-20 15:12:00,
2013-02-20 10:18:00,48.7,32.9,30.18,NE,38,0.0,6.0,54,0.00,,,0.04,617.0,meteohub,2013-02-20 15:18:00,
2013-02-20 10:24:00,48.7,33.3,30.18,North,5,0.0,6.0,55,0.00,,,0.04,629.0,meteohub,2013-02-20 15:24:00,
2013-02-20 10:30:00,49.5,34.0,30.18,West,271,0.0,6.0,55,0.00,,,0.04,647.0,meteohub,2013-02-20 15:30:00,
2013-02-20 10:37:00,50.7,34.2,30.18,West,279,2.0,3.0,53,0.00,,,0.04,664.0,meteohub,2013-02-20 15:37:00,
2013-02-20 10:42:00,50.4,32.4,30.18,West,268,0.0,3.0,50,0.00,,,0.04,691.0,meteohub,2013-02-20 15:42:00,
2013-02-20 10:47:00,50.7,32.2,30.18,NE,52,0.0,3.0,49,0.00,,,0.04,693.0,meteohub,2013-02-20 15:47:00,
2013-02-20 10:52:00,51.4,32.4,30.17,NNE,19,1.0,3.0,48,0.00,,,0.04,701.0,meteohub,2013-02-20 15:52:00,
2013-02-20 10:57:00,50.4,30.9,30.18,East,82,1.0,3.0,47,0.00,,,0.04,679.0,meteohub,2013-02-20 15:57:00,
2013-02-20 11:02:00,51.1,31.6,30.18,NW,323,0.0,3.0,47,0.00,,,0.04,719.0,meteohub,2013-02-20 16:02:00,
2013-02-20 11:07:00,51.6,33.6,30.17,NE,43,0.0,3.0,50,0.00,,,0.04,694.0,meteohub,2013-02-20 16:07:00,
2013-02-20 11:12:00,52.2,32.0,30.17,West,275,0.0,3.0,46,0.00,,,0.04,652.0,meteohub,2013-02-20 16:12:00,
2013-02-20 11:17:00,52.3,32.2,30.17,SW,223,0.0,4.0,46,0.00,,,0.04,670.0,meteohub,2013-02-20 16:17:00,
2013-02-20 11:22:00,52.0,31.3,30.17,NE,51,0.0,4.0,45,0.00,,,0.04,745.0,meteohub,2013-02-20 16:22:00,
2013-02-20 11:27:00,52.3,30.6,30.17,NE,52,2.0,4.0,43,0.00,,,0.04,728.0,meteohub,2013-02-20 16:27:00,
2013-02-20 11:32:00,53.1,32.4,30.16,WNW,284,0.0,4.0,45,0.00,,,0.04,758.0,meteohub,2013-02-20 16:32:00,
2013-02-20 11:37:00,52.7,29.1,30.16,WNW,284,0.0,4.0,40,0.00,,,0.04,779.0,meteohub,2013-02-20 16:37:00,
2013-02-20 11:42:00,53.4,29.7,30.16,WNW,290,0.0,4.0,40,0.00,,,0.04,789.0,meteohub,2013-02-20 16:42:00,
2013-02-20 11:47:00,53.4,30.4,30.15,WNW,290,1.0,3.0,41,0.00,,,0.04,795.0,meteohub,2013-02-20 16:47:00,
2013-02-20 11:52:00,54.9,30.9,30.15,WNW,288,1.0,3.0,40,0.00,,,0.04,814.0,meteohub,2013-02-20 16:52:00,
2013-02-20 11:57:00,55.0,31.8,30.15,West,266,0.0,4.0,41,0.00,,,0.04,824.0,meteohub,2013-02-20 16:57:00,
2013-02-20 12:02:00,55.8,31.8,30.15,West,266,1.0,4.0,40,0.00,,,0.04,817.0,meteohub,2013-02-20 17:02:00,
2013-02-20 12:07:00,56.1,29.5,30.15,North,5,1.0,4.0,36,0.00,,,0.04,773.0,meteohub,2013-02-20 17:07:00,
2013-02-20 12:12:00,55.8,30.6,30.15,ENE,57,0.0,4.0,38,0.00,,,0.04,814.0,meteohub,2013-02-20 17:12:00,
2013-02-20 12:17:00,56.5,31.1,30.15,NE,40,0.0,4.0,38,0.00,,,0.04,810.0,meteohub,2013-02-20 17:17:00,
2013-02-20 12:22:00,57.6,33.4,30.14,NE,47,1.0,4.0,40,0.00,,,0.04,803.0,meteohub,2013-02-20 17:22:00,
2013-02-20 12:27:00,58.5,32.4,30.14,NE,42,0.0,4.0,37,0.00,,,0.04,784.0,meteohub,2013-02-20 17:27:00,
2013-02-20 12:32:00,58.5,32.9,30.14,WSW,251,0.0,3.0,38,0.00,,,0.04,805.0,meteohub,2013-02-20 17:32:00,
2013-02-20 12:37:00,58.8,32.0,30.13,WNW,292,1.0,3.0,36,0.00,,,0.04,798.0,meteohub,2013-02-20 17:37:00,
2013-02-20 12:42:00,58.8,29.8,30.13,NE,35,1.0,3.0,33,0.00,,,0.04,800.0,meteohub,2013-02-20 17:42:00,
2013-02-20 12:47:00,59.4,31.6,30.13,West,263,0.0,3.0,35,0.00,,,0.04,809.0,meteohub,2013-02-20 17:47:00,
2013-02-20 12:52:00,59.4,30.9,30.12,West,263,0.0,3.0,34,0.00,,,0.04,802.0,meteohub,2013-02-20 17:52:00,
2013-02-20 12:57:00,59.5,25.5,30.12,North,9,0.0,4.0,27,0.00,,,0.04,789.0,meteohub,2013-02-20 17:57:00,
2013-02-20 13:02:00,59.2,28.6,30.12,SSW,200,2.0,4.0,31,0.00,,,0.04,803.0,meteohub,2013-02-20 18:02:00,
2013-02-20 13:07:00,59.7,28.9,30.11,West,267,0.0,5.0,31,0.00,,,0.04,777.0,meteohub,2013-02-20 18:07:00,
2013-02-20 13:13:00,60.8,30.7,30.11,West,269,1.0,5.0,32,0.00,,,0.04,772.0,meteohub,2013-02-20 18:13:00,
2013-02-20 13:20:00,60.3,29.5,30.11,West,273,0.0,6.0,31,0.00,,,0.04,775.0,meteohub,2013-02-20 18:20:00,
2013-02-20 13:26:00,60.1,29.3,30.10,West,269,0.0,6.0,31,0.00,,,0.04,722.0,meteohub,2013-02-20 18:26:00,
2013-02-20 13:32:00,60.6,31.3,30.10,NE,39,2.0,6.0,33,0.00,,,0.04,793.0,meteohub,2013-02-20 18:32:00,
2013-02-20 13:37:00,62.8,29.1,30.09,West,263,4.0,4.0,28,0.00,,,0.04,874.0,meteohub,2013-02-20 18:37:00,
2013-02-20 13:42:00,61.9,30.0,30.09,West,267,0.0,4.0,30,0.00,,,0.04,793.0,meteohub,2013-02-20 18:42:00,
2013-02-20 13:47:00,61.9,26.6,30.09,West,271,0.0,5.0,26,0.00,,,0.04,786.0,meteohub,2013-02-20 18:47:00,
2013-02-20 13:52:00,61.9,27.5,30.08,West,271,2.0,5.0,27,0.00,,,0.04,779.0,meteohub,2013-02-20 18:52:00,
2013-02-20 13:57:00,62.6,25.3,30.08,SW,224,2.0,7.0,24,0.00,,,0.04,752.0,meteohub,2013-02-20 18:57:00,
2013-02-20 14:02:00,63.0,28.4,30.09,West,277,2.0,7.0,27,0.00,,,0.04,478.0,meteohub,2013-02-20 19:02:00,
2013-02-20 14:07:00,62.1,24.8,30.08,SW,231,3.0,7.0,24,0.00,,,0.04,722.0,meteohub,2013-02-20 19:07:00,
2013-02-20 14:12:00,62.2,30.4,30.09,ESE,103,0.0,7.0,30,0.00,,,0.04,657.0,meteohub,2013-02-20 19:12:00,
2013-02-20 14:17:00,64.0,31.1,30.09,WSW,246,0.0,6.0,29,0.00,,,0.04,605.0,meteohub,2013-02-20 19:17:00,
2013-02-20 14:22:00,63.5,30.7,30.09,West,268,3.0,6.0,29,0.00,,,0.04,599.0,meteohub,2013-02-20 19:22:00,
2013-02-20 14:27:00,63.1,31.3,30.09,North,355,0.0,6.0,30,0.00,,,0.04,710.0,meteohub,2013-02-20 19:27:00,
2013-02-20 14:32:00,63.3,32.2,30.09,WSW,250,0.0,6.0,31,0.00,,,0.04,575.0,meteohub,2013-02-20 19:32:00,
2013-02-20 14:37:00,64.0,32.0,30.09,NW,320,0.0,7.0,30,0.00,,,0.04,594.0,meteohub,2013-02-20 19:37:00,
2013-02-20 14:42:00,64.2,32.2,30.09,West,274,3.0,7.0,30,0.00,,,0.04,605.0,meteohub,2013-02-20 19:42:00,
2013-02-20 14:47:00,63.3,29.7,30.09,NNW,347,2.0,6.0,28,0.00,,,0.04,417.0,meteohub,2013-02-20 19:47:00,
2013-02-20 14:52:00,63.1,29.5,30.09,NNW,330,0.0,6.0,28,0.00,,,0.04,536.0,meteohub,2013-02-20 19:52:00,
2013-02-20 14:57:00,63.1,27.7,30.09,West,269,0.0,7.0,26,0.00,,,0.04,533.0,meteohub,2013-02-20 19:57:00,
2013-02-20 15:02:00,63.5,28.0,30.09,WSW,248,1.0,7.0,26,0.00,,,0.04,585.0,meteohub,2013-02-20 20:02:00,
2013-02-20 15:07:00,63.5,28.9,30.09,West,273,3.0,6.0,27,0.00,,,0.04,548.0,meteohub,2013-02-20 20:07:00,
2013-02-20 15:12:00,63.3,29.7,30.09,West,265,0.0,6.0,28,0.00,,,0.04,424.0,meteohub,2013-02-20 20:12:00,
2013-02-20 15:20:00,63.5,29.8,30.09,West,271,5.0,6.0,28,0.00,,,0.04,475.0,meteohub,2013-02-20 20:20:00,
2013-02-20 15:26:00,63.1,31.3,30.09,WSW,244,4.0,6.0,30,0.00,,,0.04,425.0,meteohub,2013-02-20 20:26:00,
2013-02-20 15:32:00,63.5,33.1,30.08,West,269,1.0,6.0,32,0.00,,,0.04,454.0,meteohub,2013-02-20 20:32:00,
2013-02-20 15:37:00,63.7,30.7,30.08,NW,305,1.0,7.0,29,0.00,,,0.04,353.0,meteohub,2013-02-20 20:37:00,
2013-02-20 15:42:00,63.1,31.3,30.08,WSW,248,4.0,7.0,30,0.00,,,0.04,341.0,meteohub,2013-02-20 20:42:00,
2013-02-20 15:47:00,62.8,32.5,30.08,West,281,3.0,6.0,32,0.00,,,0.04,311.0,meteohub,2013-02-20 20:47:00,
2013-02-20 15:53:00,62.4,32.2,30.08,West,269,2.0,5.0,32,0.00,,,0.04,322.0,meteohub,2013-02-20 20:53:00,
2013-02-20 15:59:00,62.4,32.2,30.08,West,274,0.0,5.0,32,0.00,,,0.04,294.0,meteohub,2013-02-20 20:59:00,
2013-02-20 16:06:00,62.2,32.0,30.08,West,274,0.0,5.0,32,0.00,,,0.04,244.0,meteohub,2013-02-20 21:06:00,
2013-02-20 16:12:00,62.1,31.1,30.08,WSW,257,1.0,5.0,31,0.00,,,0.04,292.0,meteohub,2013-02-20 21:12:00,
2013-02-20 16:17:00,62.2,33.4,30.08,West,272,0.0,4.0,34,0.00,,,0.04,281.0,meteohub,2013-02-20 21:17:00,
2013-02-20 16:22:00,62.8,34.7,30.09,West,273,2.0,4.0,35,0.00,,,0.04,221.0,meteohub,2013-02-20 21:22:00,
2013-02-20 16:27:00,62.2,32.0,30.09,West,273,0.0,4.0,32,0.00,,,0.04,214.0,meteohub,2013-02-20 21:27:00,
2013-02-20 16:32:00,61.9,32.5,30.10,West,274,0.0,4.0,33,0.00,,,0.04,248.0,meteohub,2013-02-20 21:32:00,
2013-02-20 16:37:00,62.2,32.0,30.10,West,265,1.0,5.0,32,0.00,,,0.04,229.0,meteohub,2013-02-20 21:37:00,
2013-02-20 16:43:00,62.2,31.3,30.10,NNE,15,2.0,3.0,31,0.00,,,0.04,304.0,meteohub,2013-02-20 21:43:00,
2013-02-20 16:49:00,62.2,32.0,30.10,WNW,283,2.0,3.0,32,0.00,,,0.04,241.0,meteohub,2013-02-20 21:49:00,
2013-02-20 16:55:00,61.9,30.9,30.09,WSW,256,0.0,4.0,31,0.00,,,0.04,211.0,meteohub,2013-02-20 21:55:00,
2013-02-20 17:01:00,61.9,30.9,30.09,WSW,256,0.0,4.0,31,0.00,,,0.04,232.0,meteohub,2013-02-20 22:01:00,
2013-02-20 17:07:00,61.5,32.2,30.09,WSW,256,1.0,4.0,33,0.00,,,0.04,128.0,meteohub,2013-02-20 22:07:00,
2013-02-20 17:12:00,61.3,32.0,30.09,West,273,2.0,4.0,33,0.00,,,0.04,84.0,meteohub,2013-02-20 22:12:00,
2013-02-20 17:17:00,61.2,31.8,30.09,West,273,0.0,4.0,33,0.00,,,0.04,77.0,meteohub,2013-02-20 22:17:00,
2013-02-20 17:23:00,60.8,33.6,30.09,West,273,0.0,4.0,36,0.00,,,0.04,84.0,meteohub,2013-02-20 22:23:00,
2013-02-20 17:29:00,60.6,34.9,30.09,West,273,0.0,4.0,38,0.00,,,0.04,77.0,meteohub,2013-02-20 22:29:00,
2013-02-20 17:35:00,60.4,35.4,30.09,West,273,0.0,1.0,39,0.00,,,0.04,65.0,meteohub,2013-02-20 22:35:00,
2013-02-20 17:41:00,60.4,36.0,30.09,West,273,0.0,0.0,40,0.00,,,0.04,62.0,meteohub,2013-02-20 22:41:00,
2013-02-20 17:47:00,60.4,35.4,30.09,West,273,0.0,0.0,39,0.00,,,0.04,53.0,meteohub,2013-02-20 22:47:00,
2013-02-20 17:52:00,60.3,36.5,30.10,West,273,0.0,0.0,41,0.00,,,0.04,40.0,meteohub,2013-02-20 22:52:00,
2013-02-20 17:57:00,59.9,37.4,30.10,West,273,0.0,0.0,43,0.00,,,0.04,30.0,meteohub,2013-02-20 22:57:00,
2013-02-20 18:02:00,59.7,37.8,30.09,West,273,0.0,0.0,44,0.00,,,0.04,21.0,meteohub,2013-02-20 23:02:00,
2013-02-20 18:07:00,59.5,37.6,30.09,West,273,0.0,0.0,44,0.00,,,0.04,12.0,meteohub,2013-02-20 23:07:00,
2013-02-20 18:12:00,59.2,37.9,30.10,West,273,0.0,0.0,45,0.00,,,0.04,7.0,meteohub,2013-02-20 23:12:00,
2013-02-20 18:17:00,58.6,37.4,30.10,West,273,0.0,0.0,45,0.00,,,0.04,0.0,meteohub,2013-02-20 23:17:00,
2013-02-20 18:22:00,58.3,38.1,30.10,West,273,0.0,0.0,47,0.00,,,0.04,0.0,meteohub,2013-02-20 23:22:00,
2013-02-20 18:27:00,57.7,38.7,30.11,West,273,0.0,0.0,49,0.00,,,0.04,0.0,meteohub,2013-02-20 23:27:00,
2013-02-20 18:32:00,57.4,39.4,30.11,West,273,0.0,0.0,51,0.00,,,0.04,0.0,meteohub,2013-02-20 23:32:00,
2013-02-20 18:37:00,56.7,38.7,30.11,West,273,0.0,0.0,51,0.00,,,0.04,0.0,meteohub,2013-02-20 23:37:00,
2013-02-20 18:43:00,55.9,38.1,30.12,West,273,0.0,0.0,51,0.00,,,0.04,0.0,meteohub,2013-02-20 23:43:00,
2013-02-20 18:49:00,55.6,38.7,30.12,West,273,0.0,0.0,53,0.00,,,0.04,0.0,meteohub,2013-02-20 23:49:00,
2013-02-20 18:55:00,55.0,38.7,30.12,West,273,0.0,0.0,54,0.00,,,0.04,0.0,meteohub,2013-02-20 23:55:00,
2013-02-20 19:01:00,54.5,38.7,30.13,West,273,0.0,0.0,55,0.00,,,0.04,0.0,meteohub,2013-02-21 00:01:00,
2013-02-20 19:07:00,54.0,38.7,30.13,West,273,0.0,0.0,56,0.00,,,0.04,0.0,meteohub,2013-02-21 00:07:00,
2013-02-20 19:12:00,53.6,38.3,30.12,West,273,0.0,0.0,56,0.00,,,0.00,0.0,meteohub,2013-02-21 00:12:00,
2013-02-20 19:17:00,53.2,38.8,30.13,West,273,0.0,0.0,58,0.00,,,0.00,0.0,meteohub,2013-02-21 00:17:00,
2013-02-20 19:22:00,52.9,40.3,30.13,West,273,0.0,0.0,62,0.00,,,0.00,0.0,meteohub,2013-02-21 00:22:00,
2013-02-20 19:27:00,52.5,41.2,30.13,West,273,0.0,1.0,65,0.00,,,0.00,0.0,meteohub,2013-02-21 00:27:00,
2013-02-20 19:32:00,52.2,41.2,30.13,West,273,0.0,1.0,66,0.00,,,0.00,0.0,meteohub,2013-02-21 00:32:00,
2013-02-20 19:37:00,52.0,41.4,30.13,West,273,0.0,1.0,67,0.00,,,0.00,0.0,meteohub,2013-02-21 00:37:00,
2013-02-20 19:42:00,51.6,41.4,30.13,West,273,0.0,0.0,68,0.00,,,0.00,0.0,meteohub,2013-02-21 00:42:00,
2013-02-20 19:47:00,51.4,41.5,30.12,West,273,0.0,0.0,69,0.00,,,0.00,0.0,meteohub,2013-02-21 00:47:00,
2013-02-20 19:52:00,51.1,41.2,30.12,West,273,0.0,0.0,69,0.00,,,0.00,0.0,meteohub,2013-02-21 00:52:00,
2013-02-20 19:57:00,50.9,41.2,30.11,West,273,0.0,0.0,69,0.00,,,0.00,0.0,meteohub,2013-02-21 00:57:00,
2013-02-20 20:02:00,50.4,40.3,30.09,West,273,0.0,0.0,68,0.00,,,0.00,0.0,meteohub,2013-02-21 01:02:00,
2013-02-20 20:07:00,50.2,40.5,30.10,West,273,0.0,1.0,69,0.00,,,0.00,0.0,meteohub,2013-02-21 01:07:00,
2013-02-20 20:12:00,49.8,40.8,30.12,West,273,0.0,1.0,71,0.00,,,0.00,0.0,meteohub,2013-02-21 01:12:00,
2013-02-20 20:17:00,49.8,40.8,30.12,West,273,0.0,3.0,71,0.00,,,0.00,0.0,meteohub,2013-02-21 01:17:00,
2013-02-20 20:22:00,49.8,40.8,30.12,West,273,0.0,3.0,71,0.00,,,0.00,0.0,meteohub,2013-02-21 01:22:00,
2013-02-20 20:27:00,49.6,41.0,30.12,West,273,0.0,3.0,72,0.00,,,0.00,0.0,meteohub,2013-02-21 01:27:00,
2013-02-20 20:32:00,49.5,40.8,30.12,West,273,0.0,3.0,72,0.00,,,0.00,0.0,meteohub,2013-02-21 01:32:00,
2013-02-20 20:37:00,49.5,40.8,30.12,West,273,0.0,0.0,72,0.00,,,0.00,0.0,meteohub,2013-02-21 01:37:00,
2013-02-20 20:42:00,49.3,40.6,30.13,West,273,0.0,0.0,72,0.00,,,0.00,0.0,meteohub,2013-02-21 01:42:00,
2013-02-20 20:47:00,49.3,40.6,30.13,West,273,0.0,0.0,72,0.00,,,0.00,0.0,meteohub,2013-02-21 01:47:00,
2013-02-20 20:52:00,49.1,40.8,30.13,West,273,0.0,0.0,73,0.00,,,0.00,0.0,meteohub,2013-02-21 01:52:00,
2013-02-20 20:57:00,48.9,41.4,30.13,West,273,0.0,0.0,75,0.00,,,0.00,0.0,meteohub,2013-02-21 01:57:00,
2013-02-20 21:02:00,48.9,41.4,30.13,West,273,0.0,0.0,75,0.00,,,0.00,0.0,meteohub,2013-02-21 02:02:00,
2013-02-20 21:07:00,48.7,41.2,30.12,West,273,0.0,0.0,75,0.00,,,0.00,0.0,meteohub,2013-02-21 02:07:00,
2013-02-20 21:12:00,48.6,40.6,30.12,West,273,0.0,0.0,74,0.00,,,0.00,0.0,meteohub,2013-02-21 02:12:00,
2013-02-20 21:17:00,48.4,40.5,30.12,West,273,0.0,0.0,74,0.00,,,0.00,0.0,meteohub,2013-02-21 02:17:00,
2013-02-20 21:22:00,48.4,40.8,30.12,West,273,0.0,0.0,75,0.00,,,0.00,0.0,meteohub,2013-02-21 02:22:00,
2013-02-20 21:27:00,48.2,41.0,30.12,West,273,0.0,0.0,76,0.00,,,0.00,0.0,meteohub,2013-02-21 02:27:00,
2013-02-20 21:32:00,48.0,41.2,30.12,West,273,0.0,0.0,77,0.00,,,0.00,0.0,meteohub,2013-02-21 02:32:00,
2013-02-20 21:37:00,48.0,41.2,30.12,West,273,0.0,0.0,77,0.00,,,0.00,0.0,meteohub,2013-02-21 02:37:00,
2013-02-20 21:42:00,48.0,41.2,30.12,West,273,0.0,0.0,77,0.00,,,0.00,0.0,meteohub,2013-02-21 02:42:00,
2013-02-20 21:47:00,47.8,40.6,30.12,West,273,0.0,0.0,76,0.00,,,0.00,0.0,meteohub,2013-02-21 02:47:00,
2013-02-20 21:52:00,47.8,41.0,30.12,West,273,0.0,0.0,77,0.00,,,0.00,0.0,meteohub,2013-02-21 02:52:00,
2013-02-20 21:57:00,47.7,40.8,30.13,West,273,0.0,0.0,77,0.00,,,0.00,0.0,meteohub,2013-02-21 02:57:00,
2013-02-20 22:02:00,47.5,40.6,30.12,West,273,0.0,0.0,77,0.00,,,0.00,0.0,meteohub,2013-02-21 03:02:00,
2013-02-20 22:07:00,47.5,40.6,30.12,West,273,0.0,0.0,77,0.00,,,0.00,0.0,meteohub,2013-02-21 03:07:00,
2013-02-20 22:12:00,47.1,40.3,30.12,West,273,0.0,0.0,77,0.00,,,0.00,0.0,meteohub,2013-02-21 03:12:00,
2013-02-20 22:17:00,46.9,40.1,30.11,West,273,0.0,0.0,77,0.00,,,0.00,0.0,meteohub,2013-02-21 03:17:00,
2013-02-20 22:22:00,46.8,39.9,30.10,West,273,0.0,0.0,77,0.00,,,0.00,0.0,meteohub,2013-02-21 03:22:00,
2013-02-20 22:27:00,46.4,39.2,30.10,West,273,0.0,0.0,76,0.00,,,0.00,0.0,meteohub,2013-02-21 03:27:00,
2013-02-20 22:32:00,46.0,38.8,30.10,West,273,0.0,0.0,76,0.00,,,0.00,0.0,meteohub,2013-02-21 03:32:00,
2013-02-20 22:37:00,45.9,39.0,30.10,West,273,0.0,1.0,77,0.00,,,0.00,0.0,meteohub,2013-02-21 03:37:00,
2013-02-20 22:42:00,45.5,38.7,30.11,West,273,0.0,1.0,77,0.00,,,0.00,0.0,meteohub,2013-02-21 03:42:00,
2013-02-20 22:47:00,45.1,38.3,30.11,West,273,0.0,1.0,77,0.00,,,0.00,0.0,meteohub,2013-02-21 03:47:00,
2013-02-20 22:52:00,45.0,38.5,30.12,West,273,0.0,1.0,78,0.00,,,0.00,0.0,meteohub,2013-02-21 03:52:00,
2013-02-20 22:57:00,44.6,38.1,30.11,West,273,0.0,0.0,78,0.00,,,0.00,0.0,meteohub,2013-02-21 03:57:00,
2013-02-20 23:05:00,44.2,38.1,30.11,West,273,0.0,0.0,79,0.00,,,0.00,0.0,meteohub,2013-02-21 04:05:00,
2013-02-20 23:11:00,44.1,38.3,30.11,West,273,0.0,0.0,80,0.00,,,0.00,0.0,meteohub,2013-02-21 04:11:00,
2013-02-20 23:17:00,43.7,37.9,30.12,West,273,0.0,0.0,80,0.00,,,0.00,0.0,meteohub,2013-02-21 04:17:00,
2013-02-20 23:22:00,43.3,37.6,30.12,West,273,0.0,0.0,80,0.00,,,0.00,0.0,meteohub,2013-02-21 04:22:00,
2013-02-20 23:27:00,43.2,37.4,30.12,West,273,0.0,0.0,80,0.00,,,0.00,0.0,meteohub,2013-02-21 04:27:00,
2013-02-20 23:32:00,43.0,37.6,30.12,West,273,0.0,0.0,81,0.00,,,0.00,0.0,meteohub,2013-02-21 04:32:00,
2013-02-20 23:37:00,42.6,37.2,30.12,West,273,0.0,1.0,81,0.00,,,0.00,0.0,meteohub,2013-02-21 04:37:00,
2013-02-20 23:42:00,42.4,37.0,30.11,West,273,0.0,1.0,81,0.00,,,0.00,0.0,meteohub,2013-02-21 04:42:00,
2013-02-20 23:47:00,42.3,36.9,30.11,West,273,0.0,1.0,81,0.00,,,0.00,0.0,meteohub,2013-02-21 04:47:00,
2013-02-20 23:52:00,42.1,36.7,30.12,West,273,0.0,1.0,81,0.00,,,0.00,0.0,meteohub,2013-02-21 04:52:00,
2013-02-20 23:57:00,41.9,36.5,30.11,West,273,0.0,0.0,81,0.00,,,0.00,0.0,meteohub,2013-02-21 04:57:00,